When you browse on this site, cookies collect data to enhance your experience and personalize the content and advertising you see.
Visit our Privacy Policy to learn more. By continuing to use the site, you agree to this use of cookies and data.
  • In United Kingdom
  • List of Countries
  • For 7 days
  • Water Temperature
  • Weather Map
  • Weather Widgets
  • user-avatar
    Login

    Hourly Weather Karcag

    Today, 22 September, Sunday

    Time Temperature Precipitation Wind Pressure Humidity
    00:00 +13°C° 0 mm 1 mps 760 mmHg 46%
    01:00 +12°C° 0 mm 1 mps 760 mmHg 47%
    02:00 +12°C° 0 mm 1 mps 759 mmHg 48%
    03:00 +11°C° 0 mm 1 mps 759 mmHg 49%
    04:00 +11°C° 0 mm 1 mps 759 mmHg 50%
    05:00 +12°C° 0 mm 1 mps 759 mmHg 48%
    06:00 +12°C° 0 mm 1 mps 759 mmHg 47%
    07:00 +13°C° 0 mm 1 mps 759 mmHg 42%
    08:00 +15°C° 0 mm 1 mps 759 mmHg 38%
    09:00 +17°C° 0 mm 2 mps 759 mmHg 34%
    10:00 +19°C° 0 mm 2 mps 758 mmHg 29%
    11:00 +20°C° 0 mm 2 mps 758 mmHg 27%
    12:00 +23°C° 0 mm 2 mps 757 mmHg 25%
    13:00 +24°C° 0 mm 2 mps 756 mmHg 23%
    14:00 +24°C° 0 mm 2 mps 756 mmHg 23%
    15:00 +24°C° 0 mm 2 mps 755 mmHg 22%
    16:00 +24°C° 0 mm 2 mps 754 mmHg 22%
    17:00 +22°C° 0 mm 1 mps 754 mmHg 25%
    18:00 +20°C° 0 mm 1 mps 754 mmHg 28%
    19:00 +16°C° 0 mm 0 mps 755 mmHg 31%
    20:00 +18°C° 0 mm 1 mps 754 mmHg 32%
    21:00 +18°C° 0 mm 1 mps 754 mmHg 32%
    22:00 +16°C° 0 mm 2 mps 754 mmHg 33%
    23:00 +16°C° 0 mm 2 mps 754 mmHg 34%

    Tomorrow, 23 September, Monday

    Time Temperature Precipitation Wind Pressure Humidity
    00:00 +15°C° 0 mm 2 mps 754 mmHg 36%
    01:00 +15°C° 0 mm 2 mps 754 mmHg 37%
    02:00 +15°C° 0 mm 2 mps 754 mmHg 38%
    03:00 +14°C° 0 mm 1 mps 753 mmHg 39%
    04:00 +14°C° 0 mm 1 mps 753 mmHg 40%
    05:00 +14°C° 0 mm 1 mps 753 mmHg 40%
    06:00 +15°C° 0 mm 1 mps 753 mmHg 40%
    07:00 +16°C° 0 mm 2 mps 753 mmHg 40%
    08:00 +16°C° 0 mm 2 mps 753 mmHg 41%
    09:00 +16°C° 0 mm 2 mps 753 mmHg 42%
    10:00 +17°C° 0 mm 3 mps 753 mmHg 43%
    11:00 +16°C° 0.1 mm 3 mps 753 mmHg 50%
    12:00 +14°C° 0.1 mm 3 mps 753 mmHg 57%
    13:00 +14°C° 0.1 mm 3 mps 753 mmHg 64%
    14:00 +14°C° 0.1 mm 3 mps 753 mmHg 66%
    15:00 +14°C° 0.1 mm 3 mps 753 mmHg 67%
    16:00 +15°C° 0.1 mm 2 mps 753 mmHg 69%
    17:00 +15°C° 0 mm 2 mps 753 mmHg 68%
    18:00 +15°C° 0 mm 2 mps 753 mmHg 68%
    19:00 +15°C° 0 mm 2 mps 753 mmHg 67%
    20:00 +15°C° 0 mm 2 mps 753 mmHg 67%
    21:00 +15°C° 0 mm 2 mps 753 mmHg 67%
    22:00 +15°C° 0 mm 2 mps 753 mmHg 66%
    23:00 +15°C° 0 mm 2 mps 752 mmHg 66%

    Day after tomorrow, 24 September, Tuesday

    Time Temperature Precipitation Wind Pressure Humidity
    00:00 +15°C° 0 mm 2 mps 752 mmHg 65%
    01:00 +15°C° 0 mm 2 mps 752 mmHg 64%
    02:00 +14°C° 0 mm 2 mps 752 mmHg 65%
    03:00 +14°C° 0 mm 2 mps 752 mmHg 66%
    04:00 +13°C° 0 mm 2 mps 751 mmHg 67%
    05:00 +12°C° 0 mm 3 mps 751 mmHg 67%
    06:00 +13°C° 0 mm 3 mps 751 mmHg 68%
    07:00 +13°C° 0 mm 3 mps 752 mmHg 69%
    08:00 +16°C° 0 mm 3 mps 752 mmHg 60%
    09:00 +19°C° 0 mm 4 mps 752 mmHg 51%
    10:00 +21°C° 0 mm 4 mps 752 mmHg 42%
    11:00 +22°C° 0 mm 3 mps 751 mmHg 39%
    12:00 +25°C° 0 mm 3 mps 751 mmHg 36%
    13:00 +26°C° 0 mm 3 mps 751 mmHg 33%
    14:00 +26°C° 0 mm 3 mps 751 mmHg 34%
    15:00 +25°C° 0 mm 3 mps 751 mmHg 35%
    16:00 +25°C° 0 mm 3 mps 751 mmHg 37%
    17:00 +22°C° 0 mm 3 mps 751 mmHg 42%
    18:00 +20°C° 0 mm 3 mps 751 mmHg 48%
    19:00 +18°C° 0 mm 3 mps 751 mmHg 54%
    20:00 +18°C° 0 mm 3 mps 751 mmHg 55%
    21:00 +17°C° 0 mm 3 mps 752 mmHg 55%
    22:00 +17°C° 0 mm 4 mps 752 mmHg 56%
    23:00 +17°C° 0 mm 3 mps 752 mmHg 58%

    25 September, Wednesday

    Time Temperature Precipitation Wind Pressure Humidity
    00:00 +17°C° 0 mm 3 mps 752 mmHg 61%
    01:00 +17°C° 0 mm 3 mps 752 mmHg 64%
    02:00 +16°C° 0 mm 3 mps 751 mmHg 66%
    03:00 +16°C° 0 mm 3 mps 751 mmHg 69%
    04:00 +16°C° 0 mm 3 mps 751 mmHg 71%
    05:00 +16°C° 0 mm 3 mps 751 mmHg 74%
    06:00 +16°C° 0 mm 3 mps 751 mmHg 76%
    07:00 +16°C° 0 mm 3 mps 751 mmHg 79%
    08:00 +16°C° 0.2 mm 3 mps 752 mmHg 79%
    09:00 +16°C° 0.2 mm 3 mps 752 mmHg 80%
    10:00 +16°C° 0.2 mm 3 mps 752 mmHg 80%
    11:00 +17°C° 0.1 mm 3 mps 752 mmHg 80%
    12:00 +17°C° 0.1 mm 3 mps 752 mmHg 79%
    13:00 +17°C° 0.1 mm 3 mps 751 mmHg 79%
    14:00 +17°C° 0 mm 3 mps 751 mmHg 78%
    15:00 +17°C° 0 mm 3 mps 751 mmHg 76%
    16:00 +18°C° 0 mm 2 mps 751 mmHg 75%
    17:00 +17°C° 0 mm 2 mps 751 mmHg 79%
    18:00 +16°C° 0 mm 2 mps 751 mmHg 82%
    19:00 +16°C° 0 mm 2 mps 751 mmHg 86%
    20:00 +16°C° 0 mm 2 mps 751 mmHg 86%
    21:00 +16°C° 0 mm 1 mps 751 mmHg 86%
    22:00 +16°C° 0 mm 1 mps 751 mmHg 86%
    23:00 +16°C° 0.1 mm 1 mps 751 mmHg 86%

    26 September, Thursday

    Time Temperature Precipitation Wind Pressure Humidity
    00:00 +16°C° 0.1 mm 1 mps 751 mmHg 87%
    01:00 +16°C° 0.1 mm 1 mps 751 mmHg 87%
    02:00 +15°C° 0.4 mm 1 mps 751 mmHg 89%
    03:00 +15°C° 0.4 mm 1 mps 751 mmHg 90%
    04:00 +15°C° 0.4 mm 1 mps 752 mmHg 92%
    05:00 +15°C° 0.4 mm 1 mps 752 mmHg 92%
    06:00 +15°C° 0.4 mm 1 mps 752 mmHg 92%
    07:00 +15°C° 0.4 mm 1 mps 752 mmHg 92%
    08:00 +16°C° 0.1 mm 1 mps 752 mmHg 89%
    09:00 +16°C° 0.1 mm 2 mps 753 mmHg 85%
    10:00 +17°C° 0.1 mm 2 mps 753 mmHg 82%
    11:00 +18°C° 0.1 mm 2 mps 753 mmHg 72%
    12:00 +19°C° 0.1 mm 2 mps 753 mmHg 63%
    13:00 +21°C° 0.1 mm 2 mps 753 mmHg 54%
    14:00 +21°C° 0 mm 2 mps 753 mmHg 52%
    15:00 +21°C° 0 mm 2 mps 753 mmHg 50%
    16:00 +22°C° 0 mm 3 mps 753 mmHg 48%
    17:00 +20°C° 0 mm 2 mps 753 mmHg 54%
    18:00 +19°C° 0 mm 2 mps 754 mmHg 60%
    19:00 +18°C° 0 mm 2 mps 754 mmHg 67%
    20:00 +17°C° 0 mm 2 mps 754 mmHg 69%
    21:00 +16°C° 0 mm 2 mps 755 mmHg 71%
    22:00 +15°C° 0 mm 2 mps 755 mmHg 73%
    23:00 +15°C° 0 mm 2 mps 755 mmHg 74%

    27 September, Friday

    Time Temperature Precipitation Wind Pressure Humidity
    00:00 +15°C° 0 mm 2 mps 755 mmHg 76%
    01:00 +14°C° 0 mm 2 mps 755 mmHg 78%
    02:00 +14°C° 0 mm 2 mps 755 mmHg 81%
    03:00 +13°C° 0 mm 1 mps 756 mmHg 85%
    04:00 +13°C° 0 mm 1 mps 756 mmHg 88%
    05:00 +13°C° 0 mm 1 mps 756 mmHg 87%
    06:00 +14°C° 0 mm 1 mps 756 mmHg 85%
    07:00 +14°C° 0 mm 1 mps 756 mmHg 84%
    08:00 +16°C° 0 mm 1 mps 756 mmHg 75%
    09:00 +19°C° 0 mm 1 mps 757 mmHg 67%
    10:00 +21°C° 0 mm 1 mps 757 mmHg 58%
    11:00 +22°C° 0 mm 1 mps 756 mmHg 53%
    12:00 +23°C° 0 mm 1 mps 756 mmHg 49%
    13:00 +24°C° 0 mm 2 mps 756 mmHg 44%
    14:00 +24°C° 0 mm 1 mps 756 mmHg 44%
    15:00 +24°C° 0 mm 1 mps 755 mmHg 43%
    16:00 +24°C° 0 mm 1 mps 755 mmHg 43%
    17:00 +23°C° 0 mm 1 mps 755 mmHg 47%
    18:00 +22°C° 0 mm 1 mps 755 mmHg 51%
    19:00 +19°C° 0 mm 2 mps 756 mmHg 56%
    20:00 +19°C° 0 mm 2 mps 756 mmHg 57%
    21:00 +18°C° 0 mm 2 mps 756 mmHg 59%
    22:00 +18°C° 0 mm 3 mps 756 mmHg 60%
    23:00 +17°C° 0 mm 2 mps 756 mmHg 61%
    Show more